{"data":{"norad_id":63573,"intl_designator":"2025-076E","name":"STARLINK-33683","alt_names":[],"object_type":"PAYLOAD","status":"ACTIVE","operator":null,"country":"US","launch_date":"2025-04-14","launch_site_code":"AFETR","launch_vehicle":null,"mission":null,"orbit_class":"UNKNOWN","rcs_meters":null,"size_class":null,"mass_kg":null,"dimensions":null,"purposes":["comms"],"wikipedia_slug":null,"has_3d_model":false,"image_url":null,"decayed_at":null,"tle_current":{"epoch":"2026-05-24T18:42:19.237248Z","epoch_age_seconds":90175,"freshness":"FRESH","line1":"1 63573U 25076E   26144.77938932  .00021641  00000+0  79322-3 0  9998","line2":"2 63573  42.9990 252.3016 0001463 312.7317  47.3411 15.27596613 63460","mean_motion":15.27596613,"eccentricity":0.0001463,"inclination_deg":42.999,"raan_deg":252.3016,"arg_perigee_deg":312.7317,"mean_anomaly_deg":47.3411,"bstar":0.00079322,"rev_number":6346,"period_min":94.265723538888,"perigee_km":481.9955669438,"apogee_km":484.00313544016,"semimajor_km":6861.136351192,"source":"CELESTRAK","updated_at":"2026-05-25T13:38:20.046331Z"}}}